Location: Vancouver
(49.2500°N, 123.1330°W)
Time: 16:24:10
(UTC-08:00)

ISS - Visible Passes

Search period start: 22 January 2017 00:00
Search period end: 01 February 2017 00:00
Orbit: 399 x 410 km, 51.6° (Epoch: 23 January)

Date Brightness Start Highest point End Pass type
(mag) Time Alt. Az. Time Alt. Az. Time Alt. Az.
28 Jan -0.4 19:41:21 10° SW 19:41:47 13° SW 19:41:47 13° SW visible
29 Jan -1.8 18:49:32 10° SSW 18:51:56 23° SSE 18:51:56 23° SSE visible
30 Jan -1.2 17:58:11 10° S 18:00:08 15° SE 18:01:59 10° ESE visible
30 Jan -1.5 19:32:54 10° WSW 19:34:39 29° SW 19:34:39 29° SW visible
31 Jan -2.8 18:40:44 10° SW 18:43:53 44° SSE 18:44:38 36° ESE visible
31 Jan 0.2 20:17:03 10° W 20:17:17 12° W 20:17:17 12° W visible
